[[{"header":{"parameterUnit":"m.s-1","parameterCategory":1,"la1":30.2991,"la2":30.254,"lo1":-89.0895,"lo2":-89.0444,"dy":0.0017,"dx":0.0017,"nx":28,"ny":28,"refTime":"2023-08-31T03:00:00:Z","depth":0,"parameterNumber":2,"parameterNumberName":"U-component_of_WINDS"},"data":[0,0,0,0,0,0,0,0,0,0,0,0,0,0,0,0,0,0,0,0,0,0,0,0,0,0,0,0,0,0,0,0,0,0,0,0,0,0,0,0,0,0,0,0,0,0,0,0,0,0,0,0,0,0,0,0,0,0,-1.1134,-1.1134,0,-1.114,-1.114,-1.114,-1.1044,-1.1042,-1.1039,-1.1037,-1.1046,-1.1049,-1.1051,0,0,0,0,0,0,0,0,0,0,0,0,0,-1.1042,-1.1045,-1.1134,-1.1134,-1.1134,-1.1139,-1.114,-1.114,-1.1045,-1.1042,-1.1039,-1.1036,-1.1045,-1.1048,-1.1052,0,0,0,0,0,0,0,0,0,0,0,0,0,-1.1069,-1.1045,-1.1134,-1.1087,-1.1083,-1.1139,-1.114,-1.114,-1.1046,-1.1042,-1.1038,-1.1034,-1.1044,-1.1048,-1.1052,-1.1154,0,0,-1.1064,-1.1066,0,0,0,0,0,0,0,0,-1.1067,-1.1072,-1.1094,-1.109,-1.1086,-1.1087,-1.1111,-1.1145,-1.1047,-1.106,-1.1037,-1.1032,-1.1063,-1.1065,-1.1075,-1.1155,-1.1155,-1.1065,-1.1067,-1.1069,-1.107,0,0,0,0,0,0,0,-1.1066,-1.1071,-1.1136,-1.1094,-1.109,-1.1067,-1.1066,-1.1117,-1.1083,-1.1058,-1.1052,-1.1053,-1.106,-1.1071,-1.1075,-1.1155,-1.1064,-1.1068,-1.107,-1.1072,-1.1319,-1.1323,0,0,0,0,0,0,-1.107,-1.1071,-1.1136,-1.1136,-1.1067,-1.1071,-1.1071,-1.1091,-1.1082,-1.1077,-1.1057,-1.1049,-1.1067,-1.107,-1.1075,-1.1194,-1.1069,-1.1072,-1.1075,-1.1315,-1.132,-1.1324,0,0,0,0,0,0,-1.1068,-1.1077,-1.1136,-1.1101,-1.1107,-1.1077,-1.11,-1.1093,-1.1104,-1.1081,-1.1075,-1.1074,-1.1064,-1.1069,-1.1135,-1.1193,-1.1074,-1.1078,-1.131,-1.1316,-1.1322,-1.1435,0,0,0,0,0,0,-1.1066,-1.1077,-1.1115,-1.1103,-1.1109,-1.1196,-1.1104,-1.1096,-1.1111,-1.1101,-1.1096,-1.1091,-1.1061,-1.1129,-1.1139,-1.1197,-1.1081,-1.1305,-1.1313,-1.132,-1.1426,-1.1444,-1.146,0,0,0,0,0,-1.1063,-1.1147,-1.1117,-1.1126,-1.1157,-1.12,-1.1203,-1.1166,-1.1116,-1.1155,-1.1139,-1.1092,-1.1185,-1.1137,-1.1147,-1.1207,-1.1301,-1.131,-1.132,-1.1418,-1.1441,-1.146,0,0,0,0,0,0,-1.1169,-1.1145,-1.1112,-1.1194,-1.1199,-1.1183,-1.1231,-1.119,-1.1211,-1.1201,-1.1154,-1.1153,-1.1228,-1.1223,-1.117,-1.1305,-1.1234,-1.1246,-1.1306,-1.1327,-1.1344,-1.1345,-1.1084,0,0,0,0,0,-1.1201,-1.1237,-1.1215,-1.129,-1.1294,-1.1262,-1.1279,-1.125,-1.1254,-1.1256,-1.1245,-1.1252,-1.1282,-1.1304,-1.1331,-1.1424,-1.1422,-1.1469,-1.1487,-1.1501,-1.1512,-1.1562,-1.1583,-1.1355,-1.1355,-1.1355,0,0,-1.127,-1.1261,-1.1287,-1.1311,-1.1311,-1.1351,-1.1265,-1.131,-1.1339,-1.1263,-1.1325,-1.1317,-1.1321,-1.1401,-1.1436,-1.14,-1.1574,-1.1513,-1.1524,-1.1528,-1.1574,-1.1595,-1.1614,-1.1361,-1.136,-1.1359,0,0,-1.1415,-1.1412,-1.1474,-1.1476,-1.1477,-1.1454,-1.1469,-1.1459,-1.1451,-1.1511,-1.1455,-1.1489,-1.1542,-1.1548,-1.1557,-1.1702,-1.1659,-1.1712,-1.1802,-1.1851,-1.1869,-1.1884,-1.1938,-1.1957,-1.1723,-1.1723,-1.1723,0,-1.1501,-1.1557,-1.1512,-1.156,-1.1573,-1.1503,-1.1566,-1.157,-1.1581,-1.1592,-1.155,-1.1615,-1.1613,-1.1694,-1.1729,-1.1738,-1.1755,-1.1714,-1.1869,-1.1885,-1.1899,-1.1949,-1.1969,-1.173,-1.1729,-1.1728,-1.1728,0,-1.1663,-1.1702,-1.1752,-1.1763,-1.178,-1.1836,-1.18,-1.1823,-1.1791,-1.1774,-1.1836,-1.183,-1.1855,-1.1871,-1.1841,-1.1947,-1.1925,-1.1877,-1.1806,-1.1928,-1.1975,-1.1993,-1.1739,-1.1737,-1.1735,-1.1733,0,0,-1.1879,-1.1861,-1.1881,-1.1884,-1.1879,-1.1909,-1.1961,-1.1984,-1.2005,-1.2014,-1.2058,-1.2103,-1.2059,-1.207,-1.2039,-1.2081,-1.2197,-1.2028,-1.2027,-1.2061,-1.2316,-1.2354,-1.2377,-1.2167,-1.2171,-1.2173,-1.2316,0,-1.2021,-1.2109,-1.2069,-1.2162,-1.2198,-1.2131,-1.2177,-1.2179,-1.2163,-1.2192,-1.2174,-1.2209,-1.2146,-1.2152,-1.2191,-1.2175,-1.2248,-1.2164,-1.2209,-1.2212,-1.2214,-1.2401,-1.2442,-1.2577,-1.2334,-1.2337,-1.2339,0,-1.2201,-1.2216,-1.2312,-1.2299,-1.2313,-1.2355,-1.2372,-1.2399,-1.24,-1.2386,-1.2397,-1.2356,-1.2407,-1.2333,-1.2403,-1.2346,-1.2362,-1.2357,-1.2361,-1.2366,-1.2285,-1.2414,-1.2619,-1.2641,-1.2367,-1.2365,-1.2363,0,-1.2351,-1.2395,-1.2458,-1.2463,-1.2449,-1.248,-1.2476,-1.2473,-1.2488,-1.2503,-1.2513,-1.2534,-1.2546,-1.2563,-1.2529,-1.2478,-1.2604,-1.2527,-1.2595,-1.2597,-1.2628,-1.2627,-1.2842,-1.2634,-1.2633,-1.2633,-1.2632,0,-1.2517,-1.2579,-1.2525,-1.2565,-1.2632,-1.2584,-1.2653,-1.2641,-1.2638,-1.2675,-1.2617,-1.2653,-1.2604,-1.2635,-1.2608,-1.2671,-1.2676,-1.2667,-1.266,-1.2674,-1.2675,-1.2686,-1.2677,-1.2638,-1.2637,-1.2636,-1.2635,0,-1.2698,-1.2664,-1.2729,-1.271,-1.2706,-1.2757,-1.2741,-1.2777,-1.2755,-1.2802,-1.281,-1.2778,-1.2811,-1.2777,-1.2808,-1.279,-1.2875,-1.2853,-1.2875,-1.287,-1.2941,-1.2936,-1.3172,-1.3201,-1.2972,-1.2974,-1.2976,0,-1.2808,-1.2854,-1.2838,-1.2858,-1.2857,-1.2889,-1.2904,-1.2858,-1.2877,-1.288,-1.2916,-1.2943,-1.2964,-1.302,-1.3,-1.3023,-1.3002,-1.3083,-1.3006,-1.3019,-1.3006,-1.3005,-1.301,-1.3101,-1.3103,-1.3105,-1.3107,0,-1.3006,-1.2987,-1.301,-1.3028,-1.3047,-1.3059,-1.3067,-1.3087,-1.3039,-1.3062,-1.3095,-1.311,-1.3141,-1.317,-1.3187,-1.3183,-1.3139,-1.3131,-1.3148,-1.3165,-1.3177,-1.3174,-1.2921,-1.3127,-1.3125,-1.3123,-1.3122,-1.3122,-1.3157,-1.3194,-1.3189,-1.3217,-1.3217,-1.3226,-1.3258,-1.324,-1.3266,-1.3287,-1.3257,-1.3298,-1.3296,-1.3314,-1.3315,-1.3347,-1.3313,-1.3338,-1.3344,-1.3352,-1.3364,-1.3169,-1.3349,-1.3349,-1.3348,-1.3348,-1.3347,0,-1.3354,-1.3347,-1.3373,-1.3385,-1.3407,-1.3359,-1.3365,-1.3387,-1.3423,-1.3424,-1.3444,-1.3482,-1.3509,-1.3489,-1.3512,-1.3541,-1.3521,-1.3549,-1.3548,-1.3548,-1.3392,-1.3375,-1.3565,-1.3565,-1.3565,-1.3565,-1.3565,-1.3565,-1.346,-1.3522,-1.3501,-1.3562,-1.3554,-1.3592,-1.36,-1.3607,-1.3608,-1.3652,-1.3673,-1.3659,-1.3653,-1.3674,-1.3697,-1.3691,-1.3703,-1.3739,-1.3726,-1.3581,-1.3559,-1.3539,-1.3524,-1.3741,-1.3742,-1.388,-1.3881,-1.3882]},{"header":{"parameterUnit":"m.s-1","parameterCategory":1,"la1":30.2991,"la2":30.254,"lo1":-89.0895,"lo2":-89.0444,"dy":0.0017,"dx":0.0017,"nx":28,"ny":28,"refTime":"2023-08-31T03:00:00:Z","depth":0,"parameterNumber":3,"parameterNumberName":"V-component_of_WINDS"},"data":[0,0,0,0,0,0,0,0,0,0,0,0,0,0,0,0,0,0,0,0,0,0,0,0,0,0,0,0,0,0,0,0,0,0,0,0,0,0,0,0,0,0,0,0,0,0,0,0,0,0,0,0,0,0,0,0,0,0,-4.4238,-4.4239,0,-4.4317,-4.4318,-4.4318,-4.4252,-4.4249,-4.4246,-4.4243,-4.432,-4.4325,-4.433,0,0,0,0,0,0,0,0,0,0,0,0,0,-4.4024,-4.4028,-4.4238,-4.4239,-4.424,-4.4317,-4.4318,-4.4319,-4.4252,-4.4249,-4.4245,-4.4242,-4.4319,-4.4324,-4.433,0,0,0,0,0,0,0,0,0,0,0,0,0,-4.4111,-4.403,-4.4237,-4.4216,-4.4215,-4.4316,-4.4318,-4.4319,-4.4253,-4.4249,-4.4244,-4.4241,-4.4317,-4.4324,-4.4331,-4.4457,0,0,-4.4352,-4.4355,0,0,0,0,0,0,0,0,-4.4106,-4.4119,-4.4218,-4.4217,-4.4216,-4.427,-4.427,-4.4365,-4.4254,-4.4238,-4.4243,-4.4239,-4.4307,-4.4314,-4.4338,-4.446,-4.4464,-4.4353,-4.4357,-4.436,-4.4362,0,0,0,0,0,0,0,-4.41,-4.4115,-4.4269,-4.4219,-4.4218,-4.42,-4.4208,-4.4288,-4.4295,-4.4239,-4.4235,-4.4245,-4.4305,-4.4332,-4.4339,-4.4465,-4.4352,-4.4359,-4.4363,-4.4366,-4.4693,-4.4697,0,0,0,0,0,0,-4.4097,-4.4111,-4.4266,-4.4271,-4.415,-4.4208,-4.4216,-4.4257,-4.4294,-4.4295,-4.4248,-4.4242,-4.4322,-4.4331,-4.4342,-4.4491,-4.436,-4.4366,-4.437,-4.4688,-4.4694,-4.4698,0,0,0,0,0,0,-4.4093,-4.4112,-4.4263,-4.419,-4.4208,-4.4216,-4.4262,-4.4261,-4.4287,-4.4301,-4.4301,-4.4274,-4.4319,-4.4332,-4.4429,-4.4493,-4.4369,-4.4376,-4.4683,-4.469,-4.4696,-4.4791,0,0,0,0,0,0,-4.4087,-4.4111,-4.416,-4.4191,-4.4212,-4.435,-4.4266,-4.4265,-4.4299,-4.4291,-4.4325,-4.4327,-4.4317,-4.4419,-4.4436,-4.45,-4.4381,-4.4677,-4.4686,-4.4694,-4.4782,-4.48,-4.4815,0,0,0,0,0,-4.408,-4.4183,-4.4163,-4.4182,-4.4274,-4.4354,-4.4366,-4.4353,-4.4305,-4.4354,-4.4362,-4.4326,-4.4483,-4.4429,-4.4448,-4.4515,-4.4673,-4.4683,-4.4693,-4.4774,-4.4796,-4.4815,0,0,0,0,0,0,-4.4158,-4.4187,-4.4165,-4.4282,-4.4316,-4.4343,-4.4404,-4.4377,-4.4425,-4.4415,-4.4396,-4.4404,-4.4506,-4.452,-4.4459,-4.4638,-4.457,-4.4584,-4.4625,-4.4646,-4.4663,-4.4657,-4.4387,0,0,0,0,0,-4.4189,-4.4253,-4.4274,-4.4375,-4.4394,-4.4396,-4.443,-4.4418,-4.4452,-4.4466,-4.4482,-4.4515,-4.4572,-4.461,-4.4663,-4.4784,-4.4789,-4.4839,-4.4856,-4.4869,-4.4882,-4.4945,-4.4967,-4.4732,-4.4732,-4.4732,0,0,-4.4253,-4.4277,-4.4318,-4.4391,-4.4417,-4.4482,-4.4409,-4.4481,-4.4529,-4.4477,-4.4569,-4.4582,-4.4618,-4.4726,-4.4775,-4.4741,-4.4948,-4.4882,-4.4893,-4.4898,-4.4957,-4.498,-4.4999,-4.4739,-4.4737,-4.4736,0,0,-4.4403,-4.4429,-4.4515,-4.4542,-4.4581,-4.4582,-4.4603,-4.4633,-4.464,-4.4733,-4.4695,-4.475,-4.4849,-4.4876,-4.4902,-4.5062,-4.5029,-4.5079,-4.5167,-4.5228,-4.5247,-4.5263,-4.5319,-4.5339,-4.5092,-4.5092,-4.5092,0,-4.4478,-4.4576,-4.4562,-4.4638,-4.467,-4.4627,-4.4713,-4.4739,-4.4793,-4.4816,-4.4778,-4.49,-4.4921,-4.5035,-4.5074,-4.5097,-4.5119,-4.5075,-4.5246,-4.5262,-4.5277,-4.533,-4.5351,-4.5098,-4.5097,-4.5097,-4.5096,0,-4.4665,-4.4734,-4.4799,-4.4853,-4.4893,-4.4973,-4.497,-4.5011,-4.4995,-4.4999,-4.5093,-4.5117,-4.5174,-4.52,-4.5184,-4.5311,-4.5289,-4.5249,-4.5179,-4.5305,-4.5354,-4.5375,-4.5106,-4.5104,-4.5102,-4.5101,0,0,-4.4867,-4.4913,-4.4937,-4.4961,-4.5,-4.5052,-4.513,-4.5186,-4.5222,-4.526,-4.5324,-4.5408,-4.5371,-4.5401,-4.5388,-4.5442,-4.5565,-4.5395,-4.5395,-4.5425,-4.5705,-4.5734,-4.5758,-4.5544,-4.5548,-4.5551,-4.5701,0,-4.5019,-4.5155,-4.5144,-4.5272,-4.5335,-4.5294,-4.5361,-4.5392,-4.5398,-4.545,-4.5455,-4.5515,-4.5462,-4.548,-4.5532,-4.5539,-4.5621,-4.5528,-4.5601,-4.5604,-4.5593,-4.5784,-4.5816,-4.5957,-4.5721,-4.5724,-4.5726,0,-4.5214,-4.526,-4.5395,-4.5424,-4.545,-4.5511,-4.5561,-4.5612,-4.5645,-4.5646,-4.5679,-4.5657,-4.5733,-4.5662,-4.5766,-4.5703,-4.5732,-4.574,-4.5745,-4.5751,-4.5672,-4.5794,-4.6002,-4.6022,-4.5757,-4.5754,-4.5752,0,-4.5346,-4.5442,-4.5535,-4.5557,-4.5594,-4.5637,-4.5654,-4.5684,-4.5718,-4.5761,-4.5783,-4.5834,-4.5862,-4.5901,-4.5892,-4.5842,-4.5998,-4.5927,-4.5998,-4.5999,-4.6033,-4.6031,-4.6247,-4.6053,-4.6053,-4.6052,-4.6052,0,-4.5516,-4.56,-4.5595,-4.5652,-4.5744,-4.573,-4.5821,-4.5832,-4.5859,-4.5916,-4.5883,-4.5937,-4.5922,-4.5975,-4.5969,-4.6055,-4.6067,-4.6068,-4.6066,-4.6071,-4.6071,-4.6089,-4.6079,-4.6058,-4.6057,-4.6055,-4.6054,0,-4.568,-4.568,-4.5778,-4.5805,-4.5814,-4.5881,-4.5903,-4.5955,-4.5958,-4.6031,-4.6047,-4.6051,-4.6112,-4.6107,-4.6175,-4.617,-4.6276,-4.6262,-4.6265,-4.6262,-4.6333,-4.6326,-4.6568,-4.6599,-4.6386,-4.6388,-4.639,0,-4.5788,-4.5851,-4.5885,-4.5922,-4.5942,-4.6002,-4.6037,-4.6024,-4.6062,-4.6104,-4.6151,-4.6209,-4.6254,-4.6352,-4.636,-4.6412,-4.6398,-4.6479,-4.6405,-4.6408,-4.6398,-4.6394,-4.6399,-4.6493,-4.6496,-4.6498,-4.6499,0,-4.5979,-4.5976,-4.6028,-4.6081,-4.6124,-4.6164,-4.6201,-4.6232,-4.6223,-4.6267,-4.6329,-4.6364,-4.6433,-4.6491,-4.6539,-4.6554,-4.6525,-4.6523,-4.6542,-4.6548,-4.6547,-4.6547,-4.6304,-4.6517,-4.6515,-4.6514,-4.6513,-4.6512,-4.6118,-4.6172,-4.6204,-4.6263,-4.629,-4.6324,-4.6375,-4.6385,-4.6437,-4.6493,-4.6482,-4.6551,-4.6581,-4.6643,-4.6664,-4.6717,-4.6687,-4.6715,-4.6722,-4.6729,-4.6737,-4.6539,-4.6725,-4.6725,-4.6724,-4.6724,-4.6724,0,-4.6306,-4.6325,-4.638,-4.6432,-4.6478,-4.6448,-4.6487,-4.6527,-4.6589,-4.662,-4.6665,-4.6736,-4.6791,-4.6803,-4.6855,-4.6895,-4.6883,-4.6909,-4.6905,-4.6909,-4.6761,-4.6738,-4.6918,-4.6918,-4.6918,-4.6918,-4.6918,-4.6918,-4.641,-4.65,-4.65,-4.6602,-4.662,-4.6688,-4.6713,-4.6744,-4.6769,-4.6849,-4.6895,-4.6903,-4.6926,-4.698,-4.7028,-4.703,-4.705,-4.7082,-4.7078,-4.6939,-4.692,-4.6901,-4.688,-4.7086,-4.7087,-4.7222,-4.7223,-4.7224]}]]